Location: La Combe
(44.2394°N, 6.5239°E)
Time: 14:24:05
(UTC+00:00)

Daily predictions for brighter satellites

Satellite Brightness Start Highest point End
(mag) Time Altitude Azimuth Time Altitude Azimuth Time Altitude Azimuth
Cosmos 1980 3.9 18:16:42 10° SSW 18:22:24 83° WNW 18:28:08 10° NNE
SL-8 R/B 4.3 18:18:56 10° W 18:23:37 53° N 18:28:18 10° ENE
STARLINK-1109 4.0 18:20:13 10° NW 18:24:12 51° NNE 18:28:11 10° ESE
ERBS 4.3 18:22:04 10° W 18:25:02 28° NNW 18:28:02 10° NNE
STARLINK-1246 3.6 18:21:04 10° SW 18:25:09 74° SE 18:29:14 10° ENE
CZ-2D R/B 3.8 18:23:02 10° S 18:26:48 63° W 18:30:36 10° NNW
Cosmos 1766 3.3 18:23:52 10° S 18:27:48 66° E 18:31:47 10° NNE
STARLINK-1091 3.9 18:25:01 10° NW 18:29:02 55° NNE 18:33:03 10° ESE
Orbus 7S? 2.9 18:26:53 10° NW 18:29:54 59° SW 18:32:16 10° SE
Cosmos 1242 Rocket 4.4 18:27:05 10° NNW 18:30:16 34° W 18:33:26 10° SSW
STARLINK-67 4.4 18:28:25 10° W 18:30:41 26° NNW 18:32:57 10° NE
STARLINK-1201 3.6 18:27:48 10° WSW 18:31:01 59° NNW 18:34:15 10° NE
STARLINK-1066 2.9 18:28:15 10° NW 18:31:25 77° NNE 18:34:34 10° ESE
STARLINK-1081 2.8 18:28:44 10° NW 18:31:52 78° NE 18:34:59 10° ESE
STARLINK-1070 2.8 18:29:11 10° NW 18:32:19 78° NNE 18:35:26 10° ESE
STARLINK-1224 3.5 18:28:18 10° SW 18:32:22 83° SE 18:36:27 10° ENE
ADEOS Rocket 3.4 18:25:41 10° NNE 18:32:30 79° WNW 18:38:33 10° SSW
STARLINK-1069 2.9 18:29:37 10° NW 18:32:46 79° NNE 18:35:54 10° ESE
USA 234 3.8 18:26:52 10° ENE 18:32:54 38° SE 18:38:53 10° SSW
STARLINK-1085 2.9 18:30:04 10° NW 18:33:13 80° NE 18:36:22 10° ESE
STARLINK-1086 2.8 18:30:33 10° NW 18:33:40 81° NNE 18:36:47 10° ESE
STARLINK-1203 3.5 18:30:01 10° SW 18:34:00 89° NW 18:37:59 10° NE
STARLINK-1095 2.8 18:31:00 10° NW 18:34:08 81° NE 18:37:14 10° ESE
Cosmos 1626 2.9 18:31:12 10° NNE 18:34:32 31° ENE 18:37:52 10° SE
STARLINK-1077 2.8 18:31:26 10° NW 18:34:34 82° NE 18:37:41 10° ESE
H-2A R/B 2.4 18:29:34 10° SE 18:34:36 45° ENE 18:39:32 10° N
STARLINK-1075 2.8 18:31:53 10° NW 18:35:01 83° NNE 18:38:08 10° ESE
STARLINK-1093 2.9 18:32:18 10° NW 18:35:28 84° NE 18:38:37 10° ESE
HJ-1C 3.3 18:32:20 10° SSE 18:35:39 76° ENE 18:39:01 10° N
STARLINK-1074 2.9 18:32:45 10° NW 18:35:55 84° NE 18:39:04 10° ESE
STARLINK-1087 2.8 18:33:15 10° NW 18:36:22 85° NE 18:39:29 10° ESE
SL-16 R/B 2.5 18:31:02 10° S 18:36:23 45° ESE 18:41:46 10° NE
STARLINK-1088 2.8 18:33:42 10° NW 18:36:49 86° NNE 18:39:57 10° ESE
STARLINK-1225 3.6 18:32:55 10° SW 18:37:00 89° SE 18:41:05 10° ENE
CSL-04 Rocket 4.1 18:31:49 10° S 18:37:06 65° WSW 18:42:21 10° NNW
STARLINK-1115 2.9 18:34:07 10° NW 18:37:17 87° NE 18:40:26 10° SE
STARLINK-1076 2.9 18:34:34 10° NW 18:37:44 87° NNE 18:40:52 10° SE
STARLINK-1092 2.9 18:35:01 10° NW 18:38:11 88° NE 18:41:18 10° SE
STARLINK-1080 2.8 18:35:30 10° NW 18:38:37 89° NNE 18:41:42 10° SE
Cosmos 2333 Rocket 4.5 18:34:05 10° WSW 18:38:52 27° NW 18:43:40 10° N
STARLINK-1090 2.8 18:35:57 10° NW 18:39:05 90° NE 18:42:08 10° SE
STARLINK-1072 3.7 18:35:18 10° NW 18:39:19 63° NNE 18:43:08 11° ESE
STARLINK-1089 2.8 18:36:23 10° NW 18:39:31 90° WSW 18:42:33 11° SE
STARLINK-1107 2.8 18:36:52 10° NW 18:39:59 89° SW 18:43:00 11° SE
Resurs 01 Rocket 3.5 18:39:07 10° E 18:41:18 14° ENE 18:43:30 10° NNE
STARLINK-1230 3.6 18:37:40 10° WSW 18:41:45 85° NNW 18:45:50 10° NE
STARLINK-1096 3.6 18:39:39 10° NW 18:43:41 68° NNE 18:47:19 12° ESE
STARLINK-1233 4.0 18:41:29 10° WSW 18:44:29 43° NNW 18:47:31 10° NE
STARLINK-1212 4.0 18:41:57 10° W 18:44:57 43° NNW 18:47:58 10° NE
FREGAT/IRIS 3.0 18:42:46 10° SE 18:45:16 35° ENE 18:47:49 10° N
STARLINK-1105 4.0 18:42:23 10° W 18:45:23 42° NNW 18:48:24 10° NE
STARLINK-1206 4.1 18:42:53 10° W 18:45:52 42° NNW 18:48:52 10° NE
STARLINK-1247 4.1 18:43:19 10° W 18:46:18 42° NNW 18:49:18 10° NE
STARLINK-1243 3.7 18:42:29 10° WSW 18:46:34 79° NNW 18:50:39 10° NE
STARLINK-1227 4.1 18:43:45 10° W 18:46:45 41° NNW 18:49:46 10° NE
STARLINK-1218 4.1 18:44:14 10° W 18:47:13 41° NNW 18:50:12 10° NE
Abrixas rocket 3.2 18:44:58 10° SSW 18:47:25 23° SE 18:49:07 15° E
STARLINK-1226 4.1 18:44:41 10° W 18:47:40 41° NNW 18:50:40 10° NE
STARLINK-1254 4.1 18:45:07 10° W 18:48:06 41° NNW 18:51:07 10° NE
Cosmos 1302 Rocket 4.4 18:43:07 10° N 18:48:13 47° ENE 18:53:18 10° SE
STARLINK-1215 4.1 18:45:37 10° W 18:48:34 40° NNW 18:51:33 10° NE
STARLINK-1079 3.6 18:44:42 10° NW 18:48:44 73° NNE 18:52:11 14° ESE
STARLINK-1231 4.1 18:46:03 10° W 18:49:01 40° NNW 18:51:59 10° NE
Cosmos 1953 3.8 18:47:34 12° ESE 18:49:43 17° E 18:52:17 10° NE
STARLINK-1232 4.2 18:46:58 10° W 18:49:55 39° NNW 18:52:54 10° NE
STARLINK-1217 4.2 18:47:26 10° W 18:50:23 39° NNW 18:53:21 10° NE
STARLINK-1208 4.2 18:47:50 10° W 18:50:48 39° NNW 18:53:48 10° NE
Cosmos 304 Rocket 3.8 18:46:08 10° NNW 18:50:57 88° WSW 18:55:43 10° SSE
STARLINK-1229 4.2 18:48:19 10° W 18:51:17 38° NNW 18:54:14 10° NE
STARLINK-1236 3.8 18:47:16 10° WSW 18:51:21 74° NNW 18:55:26 10° NE
Cosmos 1709 Rocket 4.0 18:45:25 10° N 18:51:34 58° ENE 18:57:35 10° SSE
SeaSat 1 4.3 18:47:16 10° N 18:51:42 34° NW 18:56:07 10° WSW
STARLINK-1271 4.2 18:48:47 10° W 18:51:44 38° NNW 18:54:41 10° NE
STARLINK-1270 4.2 18:49:15 10° W 18:52:11 38° NNW 18:55:09 10° NE
STARLINK-1154 4.2 18:49:42 10° W 18:52:39 38° NNW 18:55:36 10° NE
STARLINK-1116 3.5 18:49:07 10° NW 18:53:10 78° NNE 18:56:26 15° ESE
Cosmos 1269 Rocket 4.0 18:48:01 10° SSW 18:53:16 75° ESE 18:58:35 10° NNE
STARLINK-1197 4.3 18:50:37 10° W 18:53:33 37° NNW 18:56:30 10° NE
MONITOR-E 4.1 18:51:15 10° SSE 18:53:47 43° ENE 18:56:20 10° N
STARLINK-1189 4.3 18:51:04 10° W 18:54:00 37° NNW 18:56:57 10° NE
STARLINK-1187 4.4 18:51:59 10° W 18:54:53 34° NNW 18:57:48 10° NE
STARLINK-1188 4.3 18:51:59 10° W 18:54:54 36° NNW 18:57:51 10° NE
STARLINK-1198 4.3 18:52:00 10° W 18:54:55 36° NNW 18:57:51 10° NE
STARLINK-1199 4.4 18:53:56 10° W 18:56:52 36° NNW 18:59:49 10° NE
STARLINK-1191 4.4 18:54:23 10° W 18:57:19 35° NNW 19:00:16 10° NE
STARLINK-1210 4.4 18:54:51 10° W 18:57:46 35° NNW 19:00:43 10° NE
STARLINK-1221 4.4 18:55:18 10° W 18:58:13 35° NNW 19:01:10 10° NE
STARLINK-1219 4.4 18:55:46 10° W 18:58:41 35° NNW 19:01:37 10° NE
STARLINK-1222 4.4 18:56:13 10° W 18:59:08 35° NNW 19:02:04 10° NE
STARLINK-1211 4.4 18:56:41 10° W 18:59:35 34° NNW 19:02:31 10° NE
STARLINK-1214 4.4 18:57:08 10° W 19:00:02 34° NNW 19:02:58 10° NE
ISS -2.1 18:57:24 10° NW 19:00:17 26° NNE 19:02:41 13° ENE
STARLINK-1245 4.4 18:57:37 10° W 19:00:30 34° NNW 19:03:24 10° NE
STARLINK-1238 4.5 18:58:00 10° W 19:00:55 34° NNW 19:03:50 10° NE
Cosmos 2251 Rocket 4.5 18:56:45 10° SSE 19:01:03 25° E 19:05:23 10° NE
Cosmos 1455 Rocket 3.2 18:56:45 10° SSW 19:01:05 78° W 19:05:28 10° N
STARLINK-1269 4.0 18:57:09 10° WSW 19:01:11 64° NNW 19:05:15 10° NE
STARLINK-1205 4.5 18:58:56 10° W 19:01:49 33° NNW 19:04:43 10° NE
STARLINK-1204 4.5 18:59:26 10° W 19:02:18 33° NNW 19:05:11 10° NE
STARLINK-1094 3.5 18:58:22 10° NW 19:02:26 89° NNW 19:05:21 18° SE
Cosmos 2297 3.7 18:56:58 10° NNW 19:02:40 77° ENE 19:08:22 10° SSE
Cosmos 2237 Rocket 3.6 19:00:40 10° SW 19:05:59 42° WNW 19:11:20 10° NNE
STARLINK-1200 4.1 19:01:59 10° WSW 19:06:01 60° NNW 19:10:03 10° NE
STARLINK-1117 3.5 19:03:13 10° WNW 19:07:17 84° SW 19:10:00 20° SE
CZ-2C R/B 3.4 19:05:31 10° NE 19:09:57 28° E 19:14:07 11° SSE
Cosmos 1626 Rocket 3.6 19:06:00 10° N 19:10:23 60° E 19:14:40 10° SSE
STARLINK-1192 4.2 19:06:46 10° WSW 19:10:47 56° NNW 19:14:48 10° NE
STARLINK-1078 3.6 19:07:40 10° WNW 19:11:44 78° SW 19:14:17 22° SE
BREEZE-M DEB (TANK) 4.1 19:02:50 10° WNW 19:13:01 45° SW 19:15:44 14° SSE
Cosmos 2278 Rocket 4.3 19:08:40 10° NW 19:13:21 27° WSW 19:18:01 10° SSW
ARGOS 3.1 19:09:32 10° SSE 19:14:57 85° ENE 19:20:22 10° NNW
STARLINK-1244 4.3 19:11:43 10° WSW 19:15:43 52° NNW 19:19:43 10° NE
STARLINK-1108 3.7 19:12:32 10° WNW 19:16:35 72° SW 19:18:58 23° SE
Cosmos 1602 Rocket 3.6 19:13:59 10° N 19:18:23 57° ENE 19:21:45 16° SSE
STARLINK-1106 4.4 19:15:23 10° NW 19:19:19 40° NNE 19:21:25 23° E
STARLINK-1138 4.4 19:16:21 10° WSW 19:20:20 49° NNW 19:24:20 10° NE
STARLINK-1071 3.7 19:17:12 10° WNW 19:21:14 67° SW 19:23:27 25° SE
USA 186 2.4 19:18:54 10° S 19:22:18 60° W 19:25:40 10° NNW
STARLINK-1112 4.4 19:20:23 10° NW 19:24:21 42° NNE 19:26:14 26° ENE
MOS 1 Rocket 4.0 19:19:27 10° NNE 19:24:24 40° E 19:29:27 10° SSE
MetOp-A 4.2 19:21:25 16° SSE 19:25:39 60° ENE 19:30:56 10° N
STARLINK-1110 3.8 19:21:40 10° WNW 19:25:41 61° SW 19:27:43 27° SSE
STARLINK-1124 3.9 19:23:03 10° WNW 19:27:09 60° SW 19:29:13 27° SSE
CZ-2C R/B 3.2 19:22:21 10° S 19:27:25 70° WSW 19:32:16 10° NNW
Cosmos 1544 Rocket 4.4 19:24:26 10° SSW 19:28:42 53° WNW 19:33:04 10° N
IRIDIUM 114 4.4 19:23:54 10° N 19:29:03 56° E 19:32:51 18° SSE
STARLINK-1128 4.3 19:25:21 10° NW 19:29:21 44° NNE 19:31:01 29° ENE
Cosmos 1470 2.8 19:26:51 10° SSW 19:30:42 77° W 19:34:36 10° N
SPOT 3 Rocket 3.5 19:29:48 15° SSE 19:34:06 78° ENE 19:39:21 10° NNW
STARLINK-1113 4.2 19:30:19 10° NW 19:34:20 47° NNE 19:35:47 32° ENE
STARLINK-1122 4.1 19:31:09 10° WNW 19:35:06 52° SW 19:36:48 30° SSE
Cosmos 1825 Rocket 4.2 19:33:19 10° N 19:37:24 35° ENE 19:37:53 34° E
IRIDIUM 103 4.2 19:33:01 10° N 19:38:15 68° E 19:42:00 19° SSE
STARLINK-1119 4.1 19:35:17 10° NW 19:39:20 50° NNE 19:40:34 36° ENE
STARLINK-1126 4.2 19:36:09 10° WNW 19:40:04 47° SW 19:41:36 31° SSE
SJ-6B 3.5 19:36:23 10° S 19:40:22 56° W 19:44:26 10° NNW
Cosmos 2369 Rocket 2.5 19:35:29 10° NNW 19:41:03 51° ENE 19:43:14 33° ESE
H-2A R/B 4.3 19:38:03 10° WSW 19:42:20 13° SW 19:44:51 10° SSW
Cosmos 1726 2.6 19:42:57 41° ENE 19:42:57 41° ENE 19:46:02 10° NNE
Ariane Rocket 4.5 19:38:47 10° SSW 19:43:27 36° W 19:48:08 10° NNW
STARLINK-1114 4.0 19:40:18 10° NW 19:44:22 53° NNE 19:45:24 41° ENE
STARLINK-1082 4.4 19:40:40 10° WNW 19:44:32 43° SW 19:45:55 31° S
Cosmos 1758 3.9 19:40:40 10° SSW 19:44:42 59° W 19:48:46 10° N
Aureole 2 Rocket 2.8 19:42:44 10° N 19:45:56 46° NE 19:45:56 46° NE
Cosmos 1758 Rocket 3.7 19:42:57 10° N 19:47:14 52° ENE 19:47:54 47° ESE
NOSS 3-3 (A) 4.0 19:42:05 10° SSW 19:47:38 51° ESE 19:53:51 10° NE
NOSS 3-3 (C) 4.0 19:42:12 10° SSW 19:47:45 50° ESE 19:53:56 10° NE
STARLINK-1130 (DARKSAT) 3.9 19:45:15 10° NW 19:49:21 57° NNE 19:50:10 47° ENE
CZ-2C R/B 3.9 19:45:18 10° N 19:50:03 75° WNW 19:54:44 10° SSW
Terra 4.0 19:53:53 11° NE 19:53:53 11° NE 19:54:53 10° NE
Cosmos 1953 Rocket 4.3 19:49:35 10° N 19:53:22 35° ENE 19:53:22 35° ENE
STARLINK-1084 3.7 19:50:12 10° NW 19:54:19 61° NNE 19:54:56 53° ENE
Spot 2 Rocket 4.0 19:55:41 38° E 19:56:17 40° ENE 20:01:03 10° N
Cosmos 2184 Rocket 3.9 19:50:07 10° N 19:56:27 71° E 19:59:37 31° SSE
IRIDIUM 106 4.3 19:51:17 10° N 19:56:32 84° W 20:00:12 20° S
Cosmos 1606 Rocket 3.9 19:59:07 47° ENE 19:59:07 47° ENE 20:02:56 10° NNE
STARLINK-1098 3.6 19:55:12 10° NW 19:59:19 65° NNE 19:59:43 61° ENE
Cosmos 1943 Rocket 2.1 19:56:56 10° NNW 20:02:30 86° WSW 20:04:34 40° SSE
Cosmos 1943 3.3 20:01:04 37° SSE 20:02:52 51° ESE 20:08:21 10° NE
Meteor 1-21 Rocket 4.2 19:57:22 10° NNW 20:02:56 78° W 20:06:07 26° S
STARLINK-1123 3.5 20:00:10 10° NW 20:04:18 70° NNE 20:04:30 69° NE
Meteor 2-10 4.0 20:00:44 16° S 20:05:01 82° E 20:10:34 10° NNE
SL-8 R/B 3.9 20:01:52 10° WNW 20:06:37 61° NNE 20:07:34 49° ENE
Resurs 1-3 4.0 20:05:32 33° SSW 20:07:20 61° W 20:11:42 10° NNW
STARLINK-1097 3.5 20:05:07 10° NW 20:09:17 76° NNE 20:09:17 76° NNE
ATLAS 2AS CENTAUR R/B 3.6 20:04:47 10° NNW 20:11:58 40° NE 20:14:21 32° ENE
H-2A R/B 4.1 20:09:53 10° SSW 20:14:11 25° W 20:18:26 10° NW
STARLINK-1099 3.6 20:10:07 10° NW 20:14:04 77° NNW 20:14:04 77° NNW
USA 245 4.1 20:15:17 54° ENE 20:15:27 54° ENE 20:21:04 10° N
USA 234 3.5 20:09:40 10° NE 20:16:10 70° NW 20:22:39 10° WSW
Resurs 01 Rocket 1.8 20:16:28 56° SSW 20:17:14 69° WSW 20:21:39 10° NNW
Cosmos 2154 Rocket 4.0 20:11:13 10° N 20:17:34 66° E 20:18:59 52° SE
STARLINK-1104 3.7 20:15:05 10° NW 20:18:51 72° NW 20:18:51 72° NW
SL-16 R/B 4.1 20:15:43 10° WSW 20:20:40 30° NW 20:25:40 10° N
Cosmos 2228 3.4 20:22:39 55° NNE 20:22:39 55° NNE 20:26:05 10° N
Cosmos 967 Rocket 4.4 20:16:27 10° SSW 20:22:52 80° ESE 20:29:23 10° NE
STARLINK-1144 3.9 20:20:05 10° WNW 20:23:38 64° WNW 20:23:38 64° WNW
Cosmos 1953 3.7 20:23:07 16° SW 20:25:48 36° WNW 20:29:30 10° N
STARLINK-1103 4.2 20:25:03 10° WNW 20:28:25 57° WNW 20:28:25 57° WNW
Cosmos 1992 Rocket 4.4 20:27:02 10° NNW 20:32:08 57° WSW 20:33:06 49° SSW
Nadezhda 1 Rocket 3.9 20:29:48 37° S 20:32:32 90° E 20:38:58 10° N
STARLINK-1101 4.4 20:30:02 10° WNW 20:33:11 50° WNW 20:33:11 50° WNW
ISS -1.5 20:34:05 10° WNW 20:35:39 25° NW 20:35:39 25° NW
MetOp-B 4.1 20:40:10 69° SSW 20:40:38 75° WSW 20:46:02 10° NNW
Cosmos 1603 4.0 20:36:32 10° SW 20:42:08 65° WNW 20:47:44 10° NNE
SPOT 5 4.3 20:44:25 25° NNE 20:44:25 25° NNE 20:46:35 10° N
ERS-1 Rocket 3.7 20:48:38 44° NNE 20:48:38 44° NNE 20:52:19 10° N
Landsat 7 4.4 20:49:40 54° N 20:49:40 54° N 20:53:22 10° NNW
CZ-2C R/B 3.8 20:45:33 10° N 20:50:19 38° WNW 20:55:04 10° SW
Cosmos 1656 Rocket 3.9 20:57:01 10° NNW 21:02:03 69° NW 21:02:03 69° NW
Aureole 1 Rocket 4.2 21:01:50 58° SSW 21:03:39 87° ESE 21:10:23 10° NNE
COSMOS 2455 3.7 21:10:23 10° NNW 21:15:09 42° NNE 21:15:09 42° NNE
Cosmos 2341 Rocket 4.2 21:16:50 10° NNW 21:22:43 69° WNW 21:22:43 69° WNW
Cosmos 2369 Rocket 3.8 21:20:09 10° NW 21:24:44 25° WSW 21:25:03 25° WSW
Terra 3.6 21:32:45 28° NNW 21:32:45 28° NNW 21:35:01 10° NNW
NOSS 3-4 (A) 3.8 21:23:36 10° NW 21:30:09 79° NNW 21:30:09 79° NNW
NOSS 3-4 (C) 3.8 21:23:42 10° NW 21:30:14 79° NNW 21:30:14 79° NNW
ATLAS 2AS CENTAUR R/B 3.4 21:55:57 10° NW 22:01:48 49° WNW 22:01:48 49° WNW
Cosmos 1980 Rocket 4.4 22:33:13 10° N 22:35:28 19° NNE 22:35:28 19° NNE
CZ-4C R/B 4.2 22:32:23 10° NNW 22:38:20 29° NE 22:38:44 29° NE
SL-16 R/B 4.4 23:52:44 23° NE 23:52:44 23° NE 23:56:38 10° N
